Location: Newark
(52.3500°N, 175.9667°E)
Time: 10:22:25
(UTC+00:00)

Transit 4A - Pass Details

Date: 22 April 2021
Orbit: 870 x 974 km, 66.8° (Epoch: 07 May)

Event Time Altitude Azimuth Distance (km) Brightness Sun altitude
Rises 18:40:53 0° 320° (NW) 3,538 10.6 13.8°
Reaches altitude 10° 18:43:28 10° 324° (NW) 2,580 10.0 14.2°
Maximum altitude 18:49:22 60° 44° (NE) 1,011 8.8 15.1°
Drops below altitude 10° 18:55:07 10° 124° (SE) 2,521 11.3 16.0°
Sets 18:57:37 0° 129° (SE) 3,452 11.8 16.4°
